| time (UTC) | temp F | wind direction | speed knots | gust knots | rain 1hr in | rain 24hr in | rain mn in | humidity % | barometer mb |
| 20260507051009 | 51 | 238 | 2.6 | 6.1 | 0.00 | 0.32 | 0.00 | 90 | 1004.5 |
| 20260507050512 | 51 | 0 | 0.0 | 0.0 | 0.00 | 0.32 | 0.00 | 91 | 1004.7 |
| 20260507050031 | 51 | 0 | 0.0 | 5.2 | 0.00 | 0.32 | 0.00 | 91 | 1004.7 |
| 20260507045512 | 51 | 0 | 1.7 | 7.0 | 0.00 | 0.32 | 0.00 | 91 | 1005.0 |
| 20260507045015 | 51 | 239 | 1.7 | 7.0 | 0.00 | 0.32 | 0.00 | 91 | 1005.2 |
| 20260507044532 | 51 | 250 | 1.7 | 7.0 | 0.01 | 0.32 | 0.00 | 91 | 1005.1 |
| 20260507044010 | 51 | 0 | 0.0 | 7.0 | 0.01 | 0.32 | 0.00 | 92 | 1004.9 |
| 20260507043514 | 51 | 0 | 0.0 | 3.5 | 0.01 | 0.32 | 0.00 | 92 | 1004.8 |
| 20260507043029 | 51 | 0 | 0.0 | 5.2 | 0.01 | 0.32 | 0.00 | 92 | 1004.9 |
| 20260507042512 | 52 | 0 | 0.9 | 5.2 | 0.01 | 0.32 | 0.00 | 92 | 1004.8 |
| 20260507042014 | 52 | 0 | 0.0 | 5.2 | 0.01 | 0.32 | 0.00 | 92 | 1004.9 |
| 20260507041530 | 52 | 0 | 0.9 | 5.2 | 0.01 | 0.32 | 0.00 | 92 | 1004.8 |
| 20260507041010 | 53 | 0 | 0.0 | 4.3 | 0.01 | 0.32 | 0.00 | 92 | 1004.8 |
| 20260507040510 | 53 | 0 | 0.0 | 4.3 | 0.01 | 0.32 | 0.00 | 92 | 1004.6 |
| 20260507040032 | 54 | 0 | 0.0 | 5.2 | 0.01 | 0.32 | 0.00 | 93 | 1004.6 |
| 20260507035512 | 54 | 281 | 1.7 | 5.2 | 0.01 | 0.32 | 0.32 | 93 | 1004.4 |
| 20260507035010 | 54 | 0 | 1.7 | 5.2 | 0.01 | 0.32 | 0.32 | 93 | 1004.5 |
| 20260507034535 | 55 | 0 | 0.0 | 0.0 | 0.00 | 0.31 | 0.31 | 93 | 1004.7 |
| 20260507034012 | 55 | 0 | 0.0 | 0.0 | 0.00 | 0.31 | 0.31 | 93 | 1004.5 |
| 20260507033511 | 55 | 0 | 0.0 | 5.2 | 0.00 | 0.31 | 0.31 | 93 | 1004.6 |
| 20260507033034 | 56 | 0 | 0.0 | 7.8 | 0.01 | 0.31 | 0.31 | 93 | 1004.6 |
| 20260507032516 | 56 | 0 | 3.5 | 7.8 | 0.01 | 0.31 | 0.31 | 93 | 1004.5 |
| 20260507032014 | 56 | 0 | 0.0 | 6.1 | 0.01 | 0.31 | 0.31 | 94 | 1004.6 |
| 20260507031529 | 57 | 0 | 0.0 | 6.1 | 0.01 | 0.31 | 0.31 | 94 | 1004.5 |
| 20260507031012 | 57 | 0 | 0.9 | 3.5 | 0.01 | 0.31 | 0.31 | 94 | 1004.5 |
| 20260507030517 | 57 | 283 | 0.0 | 3.5 | 0.01 | 0.31 | 0.31 | 94 | 1004.3 |
| 20260507030030 | 57 | 0 | 0.0 | 5.2 | 0.01 | 0.31 | 0.31 | 94 | 1004.3 |
| 20260507025511 | 58 | 0 | 0.0 | 5.2 | 0.01 | 0.31 | 0.31 | 94 | 1004.3 |
| 20260507025015 | 58 | 332 | 0.9 | 5.2 | 0.01 | 0.31 | 0.31 | 94 | 1004.1 |
| 20260507024532 | 59 | 257 | 0.0 | 5.2 | 0.01 | 0.31 | 0.31 | 94 | 1004.0 |
| 20260507024009 | 59 | 0 | 0.0 | 5.2 | 0.01 | 0.31 | 0.31 | 94 | 1004.0 |
| 20260507023513 | 59 | 294 | 2.6 | 5.2 | 0.01 | 0.31 | 0.31 | 94 | 1004.0 |
| 20260507023030 | 59 | 246 | 0.9 | 5.2 | 0.00 | 0.30 | 0.30 | 94 | 1003.9 |
| 20260507022510 | 59 | 241 | 2.6 | 5.2 | 0.00 | 0.30 | 0.30 | 94 | 1003.9 |
| 20260507022015 | 59 | 237 | 1.7 | 5.2 | 0.00 | 0.30 | 0.30 | 94 | 1003.7 |
| 20260507021530 | 59 | 0 | 0.9 | 5.2 | 0.00 | 0.30 | 0.30 | 94 | 1003.7 |
| 20260507021011 | 59 | 221 | 1.7 | 7.0 | 0.00 | 0.30 | 0.30 | 94 | 1003.8 |
| 20260507020513 | 59 | 193 | 1.7 | 7.0 | 0.00 | 0.30 | 0.30 | 94 | 1003.9 |
| 20260507020045 | 59 | 0 | 0.0 | 7.0 | 0.00 | 0.30 | 0.30 | 94 | 1003.8 |
| 20260507015510 | 59 | 233 | 1.7 | 7.0 | 0.00 | 0.30 | 0.30 | 94 | 1004.0 |
| 20260507015009 | 59 | 198 | 0.9 | 5.2 | 0.00 | 0.30 | 0.30 | 94 | 1003.9 |
| 20260507014534 | 59 | 245 | 0.9 | 8.7 | 0.00 | 0.30 | 0.30 | 94 | 1004.1 |
| 20260507014010 | 59 | 250 | 3.5 | 8.7 | 0.00 | 0.30 | 0.30 | 94 | 1004.1 |
| 20260507013508 | 59 | 225 | 0.9 | 7.0 | 0.00 | 0.30 | 0.30 | 94 | 1004.0 |
| 20260507013029 | 59 | 212 | 2.6 | 7.0 | 0.00 | 0.30 | 0.30 | 94 | 1004.0 |
| 20260507012509 | 59 | 228 | 2.6 | 7.0 | 0.00 | 0.30 | 0.30 | 94 | 1004.0 |
| 20260507012009 | 59 | 195 | 1.7 | 5.2 | 0.00 | 0.30 | 0.30 | 94 | 1004.1 |
| 20260507011541 | 59 | 235 | 1.7 | 5.2 | 0.00 | 0.30 | 0.30 | 94 | 1004.0 |
| 20260507011010 | 59 | 201 | 1.7 | 6.1 | 0.00 | 0.30 | 0.30 | 94 | 1004.0 |
| 20260507010513 | 59 | 269 | 0.9 | 6.1 | 0.00 | 0.30 | 0.30 | 94 | 1004.1 |
| 20260507010034 | 59 | 197 | 1.7 | 6.1 | 0.00 | 0.30 | 0.30 | 94 | 1004.0 |
| 20260507005511 | 59 | 197 | 1.7 | 7.0 | 0.00 | 0.30 | 0.30 | 94 | 1004.0 |
| 20260507005010 | 59 | 196 | 2.6 | 7.0 | 0.00 | 0.30 | 0.30 | 94 | 1004.0 |
| 20260507004531 | 59 | 227 | 1.7 | 5.2 | 0.00 | 0.30 | 0.30 | 94 | 1004.2 |
| 20260507004010 | 59 | 0 | 1.7 | 5.2 | 0.00 | 0.30 | 0.30 | 94 | 1004.0 |
| 20260507003515 | 59 | 249 | 0.0 | 7.0 | 0.00 | 0.30 | 0.30 | 94 | 1004.1 |
| 20260507003030 | 59 | 0 | 2.6 | 7.0 | 0.00 | 0.30 | 0.30 | 94 | 1004.0 |
| 20260507002509 | 59 | 205 | 2.6 | 6.1 | 0.00 | 0.30 | 0.30 | 94 | 1004.1 |
| 20260507002015 | 59 | 193 | 2.6 | 9.6 | 0.00 | 0.30 | 0.30 | 94 | 1003.9 |
| 20260507001602 | 59 | 0 | 1.7 | 9.6 | 0.00 | 0.30 | 0.30 | 94 | 1003.9 |
| 20260507001009 | 59 | 224 | 1.7 | 7.0 | 0.00 | 0.30 | 0.30 | 94 | 1003.9 |
| 20260507000514 | 59 | 182 | 2.6 | 7.0 | 0.00 | 0.30 | 0.30 | 94 | 1003.9 |
| 20260507000040 | 59 | 0 | 2.6 | 7.0 | 0.00 | 0.30 | 0.30 | 94 | 1003.9 |
| 20260506235511 | 59 | 256 | 3.5 | 7.0 | 0.00 | 0.30 | 0.30 | 94 | 1003.9 |
| 20260506235014 | 59 | 255 | 2.6 | 7.0 | 0.00 | 0.30 | 0.30 | 94 | 1003.8 |
| 20260506234531 | 59 | 196 | 1.7 | 9.6 | 0.00 | 0.30 | 0.30 | 94 | 1003.8 |
| 20260506234010 | 59 | 271 | 3.5 | 9.6 | 0.00 | 0.30 | 0.30 | 94 | 1003.8 |
| 20260506233510 | 59 | 191 | 2.6 | 9.6 | 0.00 | 0.30 | 0.30 | 94 | 1003.9 |
| 20260506233030 | 59 | 190 | 2.6 | 9.6 | 0.00 | 0.30 | 0.30 | 94 | 1003.8 |
| 20260506232510 | 59 | 194 | 5.2 | 9.6 | 0.00 | 0.30 | 0.30 | 94 | 1003.9 |
| 20260506232012 | 59 | 249 | 1.7 | 8.7 | 0.00 | 0.30 | 0.30 | 94 | 1003.9 |
| 20260506231531 | 59 | 205 | 1.7 | 7.8 | 0.00 | 0.30 | 0.30 | 94 | 1004.0 |
| 20260506231009 | 59 | 196 | 4.3 | 7.8 | 0.00 | 0.30 | 0.30 | 94 | 1003.9 |
| 20260506230517 | 59 | 201 | 1.7 | 7.8 | 0.00 | 0.30 | 0.30 | 94 | 1003.9 |
| 20260506230047 | 59 | 0 | 3.5 | 7.8 | 0.00 | 0.30 | 0.30 | 94 | 1003.9 |
| 20260506225509 | 59 | 172 | 2.6 | 8.7 | 0.01 | 0.30 | 0.30 | 94 | 1003.9 |
| 20260506225013 | 59 | 200 | 3.5 | 11.3 | 0.01 | 0.30 | 0.30 | 94 | 1003.9 |
| 20260506224530 | 59 | 234 | 5.2 | 13.0 | 0.01 | 0.30 | 0.30 | 94 | 1004.0 |
| 20260506224011 | 59 | 251 | 5.2 | 13.0 | 0.01 | 0.30 | 0.30 | 94 | 1004.1 |
| 20260506223512 | 59 | 195 | 2.6 | 10.4 | 0.02 | 0.30 | 0.30 | 94 | 1004.1 |
| 20260506223033 | 59 | 191 | 4.3 | 10.4 | 0.02 | 0.30 | 0.30 | 93 | 1004.2 |
| 20260506222513 | 59 | 193 | 4.3 | 9.6 | 0.02 | 0.30 | 0.30 | 93 | 1004.3 |
| 20260506222011 | 60 | 200 | 3.5 | 13.9 | 0.03 | 0.30 | 0.30 | 94 | 1004.3 |
| 20260506221530 | 60 | 202 | 5.2 | 13.9 | 0.03 | 0.30 | 0.30 | 94 | 1004.4 |
| 20260506221009 | 60 | 224 | 3.5 | 12.2 | 0.03 | 0.30 | 0.30 | 93 | 1004.4 |
| 20260506220510 | 60 | 206 | 5.2 | 12.2 | 0.03 | 0.30 | 0.30 | 93 | 1004.4 |
| 20260506220035 | 60 | 203 | 6.1 | 11.3 | 0.04 | 0.30 | 0.30 | 93 | 1004.4 |
| 20260506215510 | 60 | 200 | 3.5 | 13.0 | 0.03 | 0.29 | 0.29 | 93 | 1004.5 |
| 20260506215011 | 60 | 207 | 5.2 | 13.0 | 0.03 | 0.29 | 0.29 | 93 | 1004.5 |
| 20260506214529 | 60 | 213 | 6.1 | 13.0 | 0.04 | 0.29 | 0.29 | 93 | 1004.5 |
| 20260506214010 | 61 | 194 | 5.2 | 12.2 | 0.04 | 0.29 | 0.29 | 93 | 1004.5 |
| 20260506213515 | 61 | 186 | 2.6 | 8.7 | 0.03 | 0.28 | 0.28 | 93 | 1004.5 |
| 20260506213028 | 61 | 184 | 4.3 | 9.6 | 0.04 | 0.28 | 0.28 | 93 | 1004.6 |
| 20260506212508 | 61 | 192 | 4.3 | 10.4 | 0.04 | 0.27 | 0.27 | 93 | 1004.5 |
| 20260506212017 | 61 | 198 | 3.5 | 13.0 | 0.04 | 0.27 | 0.27 | 93 | 1004.7 |
| 20260506211530 | 61 | 199 | 2.6 | 13.0 | 0.05 | 0.27 | 0.27 | 93 | 1004.7 |
| 20260506211009 | 61 | 210 | 4.3 | 13.0 | 0.06 | 0.27 | 0.27 | 93 | 1004.7 |
| 20260506210517 | 61 | 198 | 0.9 | 7.0 | 0.07 | 0.27 | 0.27 | 93 | 1004.7 |
| 20260506210047 | 61 | 0 | 2.6 | 11.3 | 0.06 | 0.26 | 0.26 | 93 | 1004.7 |
| 20260506205508 | 61 | 186 | 5.2 | 11.3 | 0.06 | 0.26 | 0.26 | 93 | 1004.7 |
| 20260506205017 | 62 | 200 | 1.7 | 7.0 | 0.06 | 0.26 | 0.26 | 93 | 1004.8 |
| 20260506204530 | 62 | 181 | 1.7 | 6.1 | 0.05 | 0.25 | 0.25 | 93 | 1004.9 |
| 20260506204010 | 62 | 0 | 0.0 | 0.0 | 0.06 | 0.25 | 0.25 | 92 | 1005.0 |
| 20260506203514 | 62 | 0 | 0.0 | 3.5 | 0.06 | 0.25 | 0.25 | 92 | 1005.0 |
| 20260506203031 | 62 | 0 | 0.0 | 3.5 | 0.05 | 0.24 | 0.24 | 92 | 1005.0 |
| 20260506202509 | 62 | 0 | 0.0 | 0.0 | 0.04 | 0.23 | 0.23 | 92 | 1005.1 |
| 20260506202015 | 62 | 0 | 0.0 | 0.0 | 0.04 | 0.22 | 0.22 | 92 | 1005.0 |
| 20260506201530 | 62 | 0 | 0.0 | 0.0 | 0.04 | 0.22 | 0.22 | 92 | 1005.0 |
| 20260506201009 | 62 | 0 | 0.0 | 0.0 | 0.03 | 0.21 | 0.21 | 92 | 1005.0 |
| 20260506200511 | 62 | 0 | 0.0 | 0.0 | 0.03 | 0.20 | 0.20 | 92 | 1004.9 |
| 20260506200032 | 62 | 0 | 0.0 | 0.0 | 0.04 | 0.20 | 0.20 | 91 | 1004.9 |
| 20260506195511 | 62 | 0 | 0.0 | 0.0 | 0.05 | 0.20 | 0.20 | 91 | 1004.8 |
| 20260506195011 | 62 | 0 | 0.0 | 3.5 | 0.07 | 0.20 | 0.20 | 91 | 1004.8 |
| 20260506194528 | 62 | 0 | 0.0 | 3.5 | 0.08 | 0.20 | 0.20 | 91 | 1004.8 |
| 20260506194010 | 62 | 0 | 0.0 | 2.6 | 0.09 | 0.19 | 0.19 | 91 | 1004.9 |
| 20260506193511 | 62 | 0 | 0.0 | 6.1 | 0.09 | 0.19 | 0.19 | 91 | 1005.0 |
| 20260506193036 | 62 | 0 | 1.7 | 6.1 | 0.10 | 0.19 | 0.19 | 90 | 1005.1 |
| 20260506192510 | 62 | 205 | 0.9 | 4.3 | 0.10 | 0.19 | 0.19 | 90 | 1005.2 |
| 20260506192010 | 62 | 0 | 0.0 | 3.5 | 0.10 | 0.18 | 0.18 | 90 | 1005.2 |
| 20260506191530 | 62 | 240 | 0.0 | 4.3 | 0.12 | 0.18 | 0.18 | 90 | 1005.3 |
| 20260506191010 | 62 | 240 | 0.9 | 4.3 | 0.13 | 0.17 | 0.17 | 90 | 1005.5 |
| 20260506190511 | 62 | 240 | 0.0 | 7.8 | 0.14 | 0.17 | 0.17 | 90 | 1005.6 |
| 20260506190033 | 62 | 0 | 1.7 | 7.8 | 0.16 | 0.16 | 0.16 | 89 | 1005.7 |
| 20260506185514 | 62 | 250 | 2.6 | 7.8 | 0.15 | 0.15 | 0.15 | 89 | 1005.8 |
| 20260506185012 | 62 | 247 | 2.6 | 7.8 | 0.13 | 0.13 | 0.13 | 88 | 1005.7 |
| 20260506184537 | 63 | 242 | 1.7 | 5.2 | 0.11 | 0.11 | 0.11 | 88 | 1005.6 |
| 20260506184010 | 63 | 224 | 1.7 | 4.3 | 0.10 | 0.10 | 0.10 | 87 | 1005.6 |
| 20260506183512 | 63 | 235 | 1.7 | 5.2 | 0.09 | 0.09 | 0.09 | 86 | 1005.7 |
| 20260506183030 | 63 | 0 | 0.9 | 6.1 | 0.09 | 0.09 | 0.09 | 85 | 1005.6 |
| 20260506182511 | 63 | 229 | 1.7 | 8.7 | 0.09 | 0.09 | 0.09 | 84 | 1005.6 |
| 20260506182013 | 63 | 243 | 3.5 | 8.7 | 0.07 | 0.07 | 0.07 | 83 | 1005.8 |
| 20260506181539 | 64 | 258 | 2.6 | 11.3 | 0.06 | 0.06 | 0.06 | 81 | 1006.1 |
| 20260506181010 | 65 | 231 | 5.2 | 11.3 | 0.04 | 0.04 | 0.04 | 77 | 1006.0 |
| 20260506180519 | 67 | 230 | 3.5 | 11.3 | 0.02 | 0.02 | 0.02 | 73 | 1005.9 |
| 20260506180030 | 68 | 263 | 3.5 | 11.3 | 0.00 | 0.00 | 0.00 | 69 | 1005.6 |
| 20260506175511 | 70 | 240 | 2.6 | 9.6 | 0.00 | 0.00 | 0.00 | 64 | 1005.4 |
| 20260506175009 | 70 | 214 | 3.5 | 14.8 | 0.00 | 0.00 | 0.00 | 61 | 1005.2 |
| 20260506174535 | 71 | 198 | 4.3 | 14.8 | 0.00 | 0.00 | 0.00 | 59 | 1005.1 |
| 20260506174013 | 71 | 210 | 5.2 | 14.8 | 0.00 | 0.00 | 0.00 | 59 | 1005.1 |
| 20260506173512 | 71 | 207 | 5.2 | 14.8 | 0.00 | 0.00 | 0.00 | 59 | 1005.0 |
| 20260506173032 | 71 | 233 | 8.7 | 14.8 | 0.00 | 0.00 | 0.00 | 59 | 1005.2 |
| 20260506172512 | 71 | 221 | 2.6 | 13.0 | 0.00 | 0.00 | 0.00 | 60 | 1005.3 |
| 20260506172014 | 71 | 259 | 5.2 | 15.6 | 0.00 | 0.00 | 0.00 | 59 | 1005.2 |
| 20260506171533 | 71 | 262 | 4.3 | 15.6 | 0.00 | 0.00 | 0.00 | 60 | 1005.2 |
| 20260506171013 | 71 | 244 | 5.2 | 13.9 | 0.00 | 0.00 | 0.00 | 60 | 1005.5 |
| 20260506170514 | 71 | 225 | 5.2 | 15.6 | 0.00 | 0.00 | 0.00 | 59 | 1005.5 |
| 20260506170037 | 71 | 186 | 6.1 | 15.6 | 0.00 | 0.00 | 0.00 | 60 | 1005.6 |
| 20260506165512 | 70 | 231 | 5.2 | 15.6 | 0.00 | 0.00 | 0.00 | 61 | 1005.6 |
| 20260506165013 | 70 | 198 | 5.2 | 15.6 | 0.00 | 0.00 | 0.00 | 61 | 1005.6 |
| 20260506164546 | 70 | 259 | 4.3 | 14.8 | 0.00 | 0.00 | 0.00 | 61 | 1005.8 |
| 20260506164011 | 70 | 193 | 5.2 | 11.3 | 0.00 | 0.00 | 0.00 | 62 | 1005.9 |
| 20260506163513 | 70 | 191 | 4.3 | 17.4 | 0.00 | 0.00 | 0.00 | 62 | 1005.9 |
| 20260506163035 | 70 | 217 | 7.8 | 17.4 | 0.00 | 0.00 | 0.00 | 61 | 1005.9 |
| 20260506162511 | 70 | 193 | 5.2 | 12.2 | 0.00 | 0.00 | 0.00 | 62 | 1006.2 |
| 20260506162011 | 70 | 205 | 5.2 | 12.2 | 0.00 | 0.00 | 0.00 | 62 | 1006.3 |
| 20260506161530 | 70 | 206 | 6.1 | 13.9 | 0.00 | 0.00 | 0.00 | 63 | 1006.2 |
| 20260506161015 | 70 | 174 | 7.0 | 13.9 | 0.00 | 0.00 | 0.00 | 63 | 1006.6 |
| 20260506160513 | 70 | 257 | 3.5 | 12.2 | 0.00 | 0.00 | 0.00 | 63 | 1006.8 |
| 20260506160034 | 69 | 191 | 3.5 | 12.2 | 0.00 | 0.00 | 0.00 | 64 | 1006.9 |
| 20260506155514 | 69 | 200 | 5.2 | 12.2 | 0.00 | 0.00 | 0.00 | 65 | 1007.1 |
| 20260506155013 | 69 | 205 | 3.5 | 11.3 | 0.00 | 0.00 | 0.00 | 65 | 1007.1 |
| 20260506154533 | 69 | 195 | 3.5 | 11.3 | 0.00 | 0.00 | 0.00 | 66 | 1007.2 |
| 20260506154014 | 69 | 197 | 3.5 | 10.4 | 0.00 | 0.00 | 0.00 | 66 | 1007.3 |
| 20260506153514 | 69 | 235 | 4.3 | 10.4 | 0.00 | 0.00 | 0.00 | 66 | 1007.6 |
| 20260506153032 | 69 | 206 | 2.6 | 10.4 | 0.00 | 0.00 | 0.00 | 67 | 1007.5 |
| 20260506152510 | 68 | 225 | 4.3 | 11.3 | 0.00 | 0.00 | 0.00 | 67 | 1007.5 |
| 20260506152015 | 68 | 226 | 3.5 | 11.3 | 0.00 | 0.00 | 0.00 | 68 | 1007.5 |
| 20260506151533 | 68 | 244 | 4.3 | 10.4 | 0.00 | 0.00 | 0.00 | 68 | 1007.3 |
| 20260506151011 | 67 | 219 | 4.3 | 12.2 | 0.00 | 0.00 | 0.00 | 69 | 1007.2 |
| 20260506150513 | 67 | 231 | 4.3 | 12.2 | 0.00 | 0.00 | 0.00 | 69 | 1007.5 |
| 20260506150104 | 67 | 233 | 2.6 | 11.3 | 0.00 | 0.00 | 0.00 | 69 | 1007.7 |
| 20260506145508 | 67 | 248 | 4.3 | 13.9 | 0.00 | 0.00 | 0.00 | 69 | 1007.7 |
| 20260506145018 | 67 | 250 | 5.2 | 13.9 | 0.00 | 0.00 | 0.00 | 69 | 1007.5 |
| 20260506144530 | 67 | 193 | 2.6 | 10.4 | 0.00 | 0.00 | 0.00 | 70 | 1007.4 |
| 20260506144013 | 67 | 187 | 3.5 | 7.8 | 0.00 | 0.00 | 0.00 | 70 | 1007.5 |
| 20260506143517 | 67 | 181 | 3.5 | 8.7 | 0.00 | 0.00 | 0.00 | 70 | 1007.5 |
| 20260506143037 | 67 | 200 | 2.6 | 9.6 | 0.00 | 0.00 | 0.00 | 70 | 1007.4 |
| 20260506142513 | 67 | 212 | 3.5 | 13.9 | 0.00 | 0.00 | 0.00 | 70 | 1007.3 |
| 20260506142011 | 67 | 195 | 3.5 | 13.9 | 0.00 | 0.00 | 0.00 | 71 | 1007.2 |
| 20260506141540 | 66 | 195 | 3.5 | 10.4 | 0.00 | 0.00 | 0.00 | 71 | 1007.2 |
| 20260506141008 | 66 | 202 | 1.7 | 8.7 | 0.00 | 0.00 | 0.00 | 72 | 1007.3 |
| 20260506140512 | 66 | 231 | 2.6 | 9.6 | 0.00 | 0.00 | 0.00 | 72 | 1007.4 |
| 20260506140028 | 66 | 247 | 2.6 | 9.6 | 0.00 | 0.00 | 0.00 | 72 | 1007.5 |
| 20260506135508 | 66 | 206 | 3.5 | 7.8 | 0.00 | 0.00 | 0.00 | 72 | 1007.5 |
| 20260506135012 | 65 | 209 | 1.7 | 7.8 | 0.00 | 0.00 | 0.00 | 73 | 1007.5 |
| 20260506134530 | 65 | 0 | 0.9 | 6.1 | 0.00 | 0.00 | 0.00 | 73 | 1007.6 |
| 20260506134010 | 65 | 195 | 1.7 | 6.1 | 0.00 | 0.00 | 0.00 | 74 | 1007.6 |
| 20260506133514 | 65 | 199 | 1.7 | 6.1 | 0.00 | 0.00 | 0.00 | 74 | 1007.7 |
| 20260506133030 | 65 | 0 | 0.0 | 7.0 | 0.00 | 0.00 | 0.00 | 74 | 1007.7 |
| 20260506132511 | 65 | 0 | 0.0 | 7.0 | 0.00 | 0.00 | 0.00 | 74 | 1007.7 |
| 20260506132015 | 65 | 238 | 0.0 | 6.1 | 0.00 | 0.00 | 0.00 | 74 | 1007.7 |
| 20260506131529 | 64 | 241 | 2.6 | 8.7 | 0.00 | 0.00 | 0.00 | 74 | 1007.7 |
| 20260506131010 | 64 | 256 | 2.6 | 8.7 | 0.00 | 0.00 | 0.00 | 74 | 1007.8 |
| 20260506130514 | 64 | 243 | 1.7 | 7.8 | 0.00 | 0.00 | 0.00 | 75 | 1007.8 |
| 20260506130030 | 64 | 262 | 2.6 | 7.8 | 0.00 | 0.00 | 0.00 | 75 | 1007.9 |
| 20260506125514 | 64 | 229 | 1.7 | 6.1 | 0.00 | 0.00 | 0.00 | 75 | 1007.8 |
| 20260506125011 | 63 | 217 | 0.9 | 8.7 | 0.00 | 0.00 | 0.00 | 75 | 1007.7 |
| 20260506124529 | 63 | 228 | 1.7 | 8.7 | 0.00 | 0.00 | 0.00 | 75 | 1007.7 |
| 20260506124010 | 63 | 259 | 4.3 | 10.4 | 0.00 | 0.00 | 0.00 | 75 | 1007.7 |
| 20260506123511 | 63 | 195 | 2.6 | 10.4 | 0.00 | 0.00 | 0.00 | 75 | 1007.7 |
| 20260506123030 | 63 | 194 | 3.5 | 9.6 | 0.00 | 0.00 | 0.00 | 75 | 1007.7 |
| 20260506122509 | 63 | 233 | 3.5 | 9.6 | 0.00 | 0.00 | 0.00 | 75 | 1007.8 |
| 20260506122012 | 63 | 212 | 2.6 | 7.0 | 0.00 | 0.00 | 0.00 | 76 | 1008.0 |
| 20260506121530 | 63 | 0 | 2.6 | 7.0 | 0.00 | 0.00 | 0.00 | 76 | 1007.9 |
| 20260506121009 | 62 | 257 | 1.7 | 6.1 | 0.00 | 0.00 | 0.00 | 76 | 1008.0 |
| 20260506120511 | 62 | 220 | 2.6 | 6.1 | 0.00 | 0.00 | 0.00 | 77 | 1008.0 |
| 20260506120048 | 62 | 205 | 2.6 | 6.1 | 0.00 | 0.00 | 0.00 | 77 | 1008.1 |
| 20260506115511 | 62 | 205 | 2.6 | 7.8 | 0.00 | 0.00 | 0.00 | 77 | 1008.2 |
| 20260506115012 | 62 | 200 | 2.6 | 7.8 | 0.00 | 0.00 | 0.00 | 77 | 1008.1 |
| 20260506114534 | 62 | 250 | 2.6 | 7.8 | 0.00 | 0.00 | 0.00 | 77 | 1008.3 |
| 20260506114013 | 62 | 244 | 2.6 | 7.8 | 0.00 | 0.00 | 0.00 | 77 | 1008.3 |
| 20260506113511 | 61 | 248 | 3.5 | 7.8 | 0.00 | 0.00 | 0.00 | 77 | 1008.2 |
| 20260506113030 | 61 | 193 | 3.5 | 9.6 | 0.00 | 0.00 | 0.00 | 77 | 1008.2 |
| 20260506112510 | 61 | 0 | 1.7 | 9.6 | 0.00 | 0.00 | 0.00 | 77 | 1008.4 |
| 20260506112013 | 61 | 232 | 2.6 | 8.7 | 0.00 | 0.00 | 0.00 | 77 | 1008.3 |
| 20260506111531 | 61 | 200 | 4.3 | 8.7 | 0.00 | 0.00 | 0.00 | 77 | 1008.2 |
| 20260506111010 | 61 | 173 | 2.6 | 11.3 | 0.00 | 0.00 | 0.00 | 78 | 1008.4 |
| 20260506110510 | 61 | 203 | 1.7 | 11.3 | 0.00 | 0.00 | 0.00 | 78 | 1008.5 |
| 20260506110032 | 61 | 198 | 4.3 | 11.3 | 0.00 | 0.00 | 0.00 | 78 | 1008.3 |
| 20260506105517 | 60 | 200 | 3.5 | 9.6 | 0.00 | 0.00 | 0.00 | 78 | 1008.2 |
| 20260506105010 | 60 | 191 | 3.5 | 9.6 | 0.00 | 0.00 | 0.00 | 78 | 1008.3 |
| 20260506104539 | 60 | 198 | 5.2 | 9.6 | 0.00 | 0.00 | 0.00 | 78 | 1008.3 |
| 20260506104016 | 60 | 201 | 5.2 | 10.4 | 0.00 | 0.00 | 0.00 | 78 | 1008.3 |
| 20260506103510 | 60 | 181 | 3.5 | 10.4 | 0.00 | 0.00 | 0.00 | 78 | 1008.3 |
| 20260506103040 | 60 | 195 | 4.3 | 8.7 | 0.00 | 0.00 | 0.00 | 78 | 1008.3 |
| 20260506102516 | 60 | 187 | 2.6 | 8.7 | 0.00 | 0.00 | 0.00 | 78 | 1008.3 |
| 20260506102011 | 60 | 196 | 1.7 | 7.0 | 0.00 | 0.00 | 0.00 | 78 | 1008.2 |
| 20260506101532 | 60 | 188 | 2.6 | 6.1 | 0.00 | 0.00 | 0.00 | 78 | 1008.2 |
| 20260506101009 | 60 | 204 | 1.7 | 7.0 | 0.00 | 0.00 | 0.00 | 78 | 1008.3 |
| 20260506100511 | 60 | 257 | 1.7 | 7.8 | 0.00 | 0.00 | 0.00 | 78 | 1008.3 |
| 20260506100031 | 60 | 0 | 0.9 | 7.8 | 0.00 | 0.00 | 0.00 | 78 | 1008.4 |
| 20260506095509 | 60 | 0 | 1.7 | 6.1 | 0.00 | 0.00 | 0.00 | 78 | 1008.1 |
| 20260506095010 | 59 | 193 | 1.7 | 6.1 | 0.00 | 0.00 | 0.00 | 77 | 1008.2 |
| 20260506094530 | 59 | 0 | 0.0 | 0.0 | 0.00 | 0.00 | 0.00 | 77 | 1008.2 |
| 20260506094009 | 59 | 0 | 0.0 | 0.0 | 0.00 | 0.00 | 0.00 | 77 | 1008.2 |
| 20260506093511 | 59 | 0 | 0.0 | 0.0 | 0.00 | 0.00 | 0.00 | 77 | 1008.2 |
| 20260506093031 | 59 | 0 | 0.0 | 2.6 | 0.00 | 0.00 | 0.00 | 76 | 1008.4 |
| 20260506092509 | 59 | 0 | 0.0 | 2.6 | 0.00 | 0.00 | 0.00 | 76 | 1008.1 |
| 20260506092014 | 59 | 0 | 0.0 | 3.5 | 0.00 | 0.00 | 0.00 | 76 | 1008.2 |
| 20260506091530 | 59 | 205 | 0.0 | 3.5 | 0.00 | 0.00 | 0.00 | 76 | 1008.1 |
| 20260506091011 | 59 | 0 | 0.0 | 0.0 | 0.00 | 0.00 | 0.00 | 75 | 1008.1 |
| 20260506090512 | 59 | 0 | 0.0 | 0.0 | 0.00 | 0.00 | 0.00 | 75 | 1008.1 |
| 20260506090031 | 59 | 0 | 0.0 | 0.0 | 0.00 | 0.00 | 0.00 | 74 | 1008.0 |
| 20260506085508 | 60 | 0 | 0.0 | 2.6 | 0.00 | 0.00 | 0.00 | 74 | 1008.2 |
| 20260506085009 | 60 | 0 | 0.0 | 2.6 | 0.00 | 0.00 | 0.00 | 75 | 1008.1 |
| 20260506084606 | 60 | 0 | 0.0 | 2.6 | 0.00 | 0.00 | 0.00 | 74 | 1008.2 |
| 20260506084017 | 60 | 0 | 0.0 | 0.0 | 0.00 | 0.00 | 0.00 | 74 | 1008.2 |
| 20260506083514 | 59 | 0 | 0.0 | 0.0 | 0.00 | 0.00 | 0.00 | 74 | 1008.1 |
| 20260506083029 | 59 | 0 | 0.0 | 0.0 | 0.00 | 0.00 | 0.00 | 74 | 1008.2 |
| 20260506082510 | 60 | 0 | 0.0 | 0.0 | 0.00 | 0.00 | 0.00 | 73 | 1008.1 |
| 20260506082014 | 60 | 0 | 0.0 | 0.0 | 0.00 | 0.00 | 0.00 | 73 | 1008.1 |
| 20260506081540 | 60 | 0 | 0.0 | 0.0 | 0.00 | 0.00 | 0.00 | 72 | 1008.1 |
| 20260506081011 | 60 | 0 | 0.0 | 0.0 | 0.00 | 0.00 | 0.00 | 72 | 1008.1 |
| 20260506080511 | 60 | 0 | 0.0 | 0.0 | 0.00 | 0.00 | 0.00 | 71 | 1008.1 |
| 20260506073510 | 61 | 0 | 1.7 | 4.3 | 0.00 | 0.00 | 0.00 | 70 | 1007.8 |
| 20260506073030 | 61 | 0 | 0.0 | 0.0 | 0.00 | 0.00 | 0.00 | 70 | 1007.8 |
| 20260506072513 | 61 | 0 | 0.0 | 5.2 | 0.00 | 0.00 | 0.00 | 70 | 1007.7 |
| 20260506072013 | 61 | 0 | 0.0 | 5.2 | 0.00 | 0.00 | 0.00 | 70 | 1007.6 |
| 20260506071534 | 61 | 207 | 1.7 | 6.1 | 0.00 | 0.00 | 0.00 | 69 | 1007.7 |
| 20260506071012 | 61 | 210 | 1.7 | 6.1 | 0.00 | 0.00 | 0.00 | 69 | 1007.7 |
| 20260506070512 | 62 | 198 | 2.6 | 6.1 | 0.00 | 0.00 | 0.00 | 69 | 1007.5 |
| 20260506062512 | 62 | 0 | 1.7 | 7.0 | 0.00 | 0.00 | 0.00 | 67 | 1007.4 |
| 20260506062016 | 62 | 202 | 2.6 | 10.4 | 0.00 | 0.00 | 0.00 | 67 | 1007.4 |
| 20260506061530 | 62 | 204 | 1.7 | 10.4 | 0.00 | 0.00 | 0.00 | 67 | 1007.3 |
| 20260506061010 | 62 | 201 | 2.6 | 7.0 | 0.00 | 0.00 | 0.00 | 67 | 1007.5 |
| 20260506060515 | 62 | 195 | 1.7 | 6.1 | 0.00 | 0.00 | 0.00 | 67 | 1007.4 |